Content
SEND FEEDBACK

Daily
Averages
Monthly
Summary
United States of America

MILWAUKEE, WISCONSIN


Home > North America > United States > Wisconsin
Elevation: 672 feet     Latitude: 42 57N     Longitude: 087 54W

WEATHER
 
SELECT A DAY
Number of Records: 202,757;   Date Range: 1/1/95 - 10/20/14
 
SHARE

PRINT THIS DATA

[ ← Previous Day ]
WEATHER ALMANAC - JULY 22, 2014
[ Next Day → ]
[ °C ]   °F
Weather ElementAverageHighLow
Temperature80.4 °F89.6 °F (2:50 pm)66 °F (11:52 pm)
Dewpoint68.6 °F75.9 °F (7:52 pm)59 °F (11:52 pm)
Humidity67.7 %81 % (3:52 am)56 % (9:31 pm)
Barometer29.94 in30.03 in (11:52 pm)29.88 in (1:52 pm)
Wind Speed13.4 mph18.4 mph (7:52 am)
Wind Gust24.2 mph (12:52 pm)
Weather ElementAverage
Visibility9.8 mi
Wind DirectionSW (223.1 °)

Weather ElementTotal
Precipitation0.02 in
Cooling Degree Days12.8 (Base 65)
Growing Degree Days27.8 (Base 50)
Averaged from 26 records on July 22, 2014
WEATHER CONDITIONS BREAKOUT
WIND DIRECTION BREAKOUT
WEATHER BY HOUR - JULY 22, 2014
[ °C ]   °F
Local TimeTemperatureDewpointHumidityBarometerVisibilityWind DirectionWind SpeedGust SpeedPrecipitationEventsConditions
1:52 AM73.0 °F64.9 °F76 %30.01 in10.0 miSouth (190°)9.2 mphScattered Clouds
2:52 AM72.0 °F64.9 °F78 %30.01 in10.0 miSSW (210°)8.1 mphClear
3:52 AM71.1 °F64.9 °F81 %30.00 in10.0 miSSW (210°)6.9 mphClear
4:52 AM71.1 °F64.9 °F81 %30.00 in10.0 miSSW (210°)10.4 mphClear
5:52 AM71.1 °F64.9 °F81 %30.00 in9.0 miSSW (210°)12.7 mphScattered Clouds
6:52 AM72.0 °F64.9 °F78 %29.98 in10.0 miSouth (190°)13.8 mphPartly Cloudy
7:52 AM75.0 °F64.9 °F71 %29.96 in10.0 miSSW (200°)18.4 mphScattered Clouds
8:52 AM77.0 °F66.2 °F69 %29.97 in10.0 miSSW (210°)11.5 mphMostly Cloudy
9:52 AM81.0 °F66.9 °F62 %29.94 in10.0 miSW (220°)16.1 mphMostly Cloudy
10:52 AM82.9 °F68.0 °F60 %29.94 in10.0 miSW (230°)17.3 mphPartly Cloudy
11:52 AM84.0 °F69.1 °F61 %29.94 in10.0 miSW (220°)18.4 mphOvercast
12:52 PM88.0 °F71.1 °F57 %29.91 in10.0 miSW (220°)15.0 mph24.2 mphScattered Clouds
1:52 PM89.1 °F73.0 °F59 %29.88 in10.0 miSSW (210°)17.3 mph24.2 mphScattered Clouds
2:50 PM89.6 °F73.4 °F59 %29.89 in10.0 miSW (220°)15.0 mph24.2 mphMostly Cloudy
2:52 PM89.6 °F73.4 °F59 %29.89 in10.0 miSW (230°)17.3 mph24.2 mphMostly Cloudy
3:52 PM87.1 °F73.0 °F63 %29.90 in10.0 miWSW (240°)13.8 mphOvercast
4:52 PM88.0 °F73.9 °F63 %29.89 in10.0 miWSW (250°)12.7 mph21.9 mphMostly Cloudy
5:52 PM87.1 °F73.9 °F65 %29.89 in9.0 miWSW (240°)13.8 mphMostly Cloudy
6:52 PM87.1 °F75.0 °F67 %29.89 in10.0 miSW (230°)12.7 mphScattered Clouds
7:52 PM86.0 °F75.9 °F72 %29.89 in9.0 miWSW (250°)9.2 mphMostly Cloudy
8:36 PM84.0 °F73.9 °F72 %29.91 in9.0 miNNW (340°)8.1 mph0.01 inThunderstormThunderstorm
8:52 PM82.9 °F70.0 °F65 %29.91 in10.0 miNNW (330°)11.5 mph0.01 inThunderstormThunderstorm
9:31 PM82.9 °F66.0 °F56 %29.94 in10.0 miNNW (340°)15.0 mph20.7 mphMostly Cloudy
9:52 PM82.0 °F66.0 °F58 %29.93 in10.0 miNNW (340°)16.1 mph23.0 mphMostly Cloudy
10:52 PM72.0 °F61.0 °F68 %29.99 in10.0 miNNE (30°)13.8 mphOvercast
11:52 PM66.0 °F59.0 °F78 %30.03 in10.0 miNNE (30°)15.0 mph24.2 mphOvercast
Hourly data recorded from KMKE, located miles away from Milwaukee, Wisconsin







STORIES FROM OUR PARTNERS